Weather History for Mt. Clemens, MI

Change the Weather History Date:

Thursday, October 4, 2012

  Actual Average Record
Temperature  
Mean Temperature 67 °F -  
Max Temperature 77 °F 65 °F 87 °F (1997)
Min Temperature 57 °F 46 °F 31 °F (1965)
Cooling Degree Days 2    
Growing Degree Days 17 (Base 50)    
Moisture  
Dew Point 53 °F    
Average Humidity 63    
Maximum Humidity 88    
Minimum Humidity 41    
Precipitation  
Precipitation 0.00 in - - ()
Sea Level Pressure  
Sea Level Pressure 30.06 in    
Wind  
Wind Speed 10 mph (SW)    
Max Wind Speed 16 mph    
Max Gust Speed 21 mph    
Visibility 11 miles    
Events      
Averages and records for this station are not official NWS values.
T = Trace of Precipitation, MM = Missing Value Source: NWS Daily Summary

Daily Weather History Graph

Daily Weather History Graph

Search for Another Location

Airport:

Trip Planner

Search our weather history database for the weather conditions in past years. The results will help you decide how hot, cold, wet, or windy it might be!

Date:

Astronomy

Oct. 04, 2012 Rise Set
Actual Time 7:32 AM EDT 7:06 PM EDT
Civil Twilight 7:04 AM EDT 7:34 PM EDT
Nautical Twilight 6:31 AM EDT 8:07 PM EDT
Astronomical Twilight 5:58 AM EDT 8:40 PM EDT
Moon 9:35 PM EDT (10/4) 11:54 AM EDT (10/4)
Length of Visible Light 12h 30m
Length of Day
11h 34m
Waning Gibbous, 82% of the Moon is Illuminated
Oct 4
Waning Gibbous
Oct 8
Last Quarter
Oct 15
New
Oct 21
First Quarter
Oct 29
Full

Hourly Weather History & Observations

Time (EDT) Temp. Dew Point Humidity Pressure Visibility Wind Dir Wind Speed Gust Speed Precip Events Conditions
4:55 AM 57.2 °F 53.6 °F 88% 30.07 in 10.0 mi SSW 6.9 mph - N/A   Scattered Clouds
5:55 AM 60.8 °F 51.8 °F 72% 30.07 in 10.0 mi SSW 10.4 mph - N/A   Scattered Clouds
6:55 AM 60.8 °F 51.8 °F 72% 30.08 in 10.0 mi SW 9.2 mph - N/A   Mostly Cloudy
7:55 AM 59.0 °F 51.8 °F 77% 30.08 in 10.0 mi SW 8.1 mph - N/A   Partly Cloudy
8:55 AM 60.8 °F 51.8 °F 72% 30.09 in 10.0 mi WSW 10.4 mph - N/A   Partly Cloudy
9:55 AM 64.4 °F 51.8 °F 64% 30.09 in 10.0 mi SW 10.4 mph - N/A   Partly Cloudy
10:55 AM 66.2 °F 53.6 °F 64% 30.09 in 10.0 mi WSW 13.8 mph - N/A   Partly Cloudy
11:55 AM 68.0 °F 53.6 °F 60% 30.09 in 10.0 mi WSW 16.1 mph - N/A   Mostly Cloudy
12:55 PM 69.8 °F 53.6 °F 56% 30.09 in 10.0 mi SW 10.4 mph 19.6 mph N/A   Mostly Cloudy
1:55 PM 71.6 °F 50.0 °F 46% 30.07 in 12.0 mi West 13.8 mph 19.6 mph N/A   Partly Cloudy
2:55 PM 75.2 °F 53.6 °F 47% 30.05 in 12.0 mi SW 15.0 mph 18.4 mph N/A   Partly Cloudy
3:55 PM 77.0 °F 51.8 °F 41% 30.04 in 12.0 mi WSW 13.8 mph - N/A   Partly Cloudy
4:55 PM 75.2 °F 51.8 °F 44% 30.03 in 12.0 mi SW 11.5 mph - N/A   Partly Cloudy
5:55 PM 73.4 °F 50.0 °F 44% 30.04 in 12.0 mi SW 13.8 mph 20.7 mph N/A   Partly Cloudy
6:55 PM 71.6 °F 50.0 °F 46% 30.04 in 12.0 mi SW 10.4 mph - N/A   Partly Cloudy
7:55 PM 62.6 °F 53.6 °F 72% 30.03 in 12.0 mi South 6.9 mph - N/A   Partly Cloudy
8:55 PM 60.8 °F 53.6 °F 77% 30.02 in 12.0 mi South 9.2 mph - N/A   Partly Cloudy
9:55 PM 62.6 °F 55.4 °F 77% 30.01 in 12.0 mi South 8.1 mph - N/A   Mostly Cloudy
10:55 PM 64.4 °F 55.4 °F 73% 30.00 in 12.0 mi South 9.2 mph - N/A   Overcast